This is the latest recevied weather packets stored in our database for station/object KD5UIG. If no packets are shown the sender has not sent any weather packets the latest 10 day(s).
| Time | Temp. | Humidity | Pressure | Rain* | Wind** | Luminosity | Snow |
|---|---|---|---|---|---|---|---|
| 1777811158 | 11.11° C | 83% | 1020.4 hPa | 0 mm | - | 69 W/m² | - |
| 1777810565 | 11.11° C | 83% | 1020.2 hPa | 0 mm | - | 47 W/m² | - |
| 1777809355 | 10.56° C | 82% | 1020 hPa | 0 mm | - | 12 W/m² | - |
| 1777808781 | 10.56° C | 82% | 1020.2 hPa | 0 mm | - | 7 W/m² | - |
| 1777808156 | 10.56° C | 82% | 1020.1 hPa | 0 mm | - | 0 W/m² | - |
| 1777807861 | 10.56° C | 81% | 1020.1 hPa | 0 mm | - | 0 W/m² | - |
| 1777806954 | 10.56° C | 81% | 1019.9 hPa | 0 mm | - | 0 W/m² | - |
| 1777804856 | 11.11° C | 80% | 1019.8 hPa | 0 mm | - | 0 W/m² | - |
| 1777804257 | 11.67° C | 80% | 1019.8 hPa | 0 mm | - | 0 W/m² | - |
| 1777803655 | 11.67° C | 80% | 1019.7 hPa | 0 mm | - | 0 W/m² | - |
| 1777803355 | 11.67° C | 80% | 1019.8 hPa | 0 mm | - | 0 W/m² | - |
| 1777801855 | 11.67° C | 80% | 1019.7 hPa | 0 mm | - | 0 W/m² | - |
| 1777801256 | 11.67° C | 80% | 1019.7 hPa | 0 mm | - | 0 W/m² | - |
| 1777797063 | 12.22° C | 77% | 1019.5 hPa | 0 mm | - | 0 W/m² | - |
| 1777796455 | 12.78° C | 78% | 1019.5 hPa | 0 mm | - | 0 W/m² | - |
| 1777795271 | 12.78° C | 78% | 1019.6 hPa | 0 mm | - | 0 W/m² | - |
| 1777794055 | 12.78° C | 78% | 1019.7 hPa | 0 mm | - | 0 W/m² | - |
| 1777793155 | 12.78° C | 77% | 1019.8 hPa | 0 mm | - | 0 W/m² | - |
| 1777792556 | 12.78° C | 77% | 1019.9 hPa | 0 mm | - | 0 W/m² | - |
| 1777792256 | 13.33° C | 77% | 1020 hPa | 0 mm | - | 0 W/m² | - |
| 1777791355 | 13.33° C | 76% | 1020.1 hPa | 0 mm | - | 0 W/m² | - |
| 1777790155 | 13.33° C | 75% | 1020 hPa | 0 mm | - | 0 W/m² | - |
| 1777789255 | 13.89° C | 74% | 1020.1 hPa | 0 mm | - | 0 W/m² | - |
| 1777788062 | 13.89° C | 73% | 1019.7 hPa | 0 mm | - | 0 W/m² | - |
| 1777787455 | 14.44° C | 73% | 1019.7 hPa | 0 mm | - | 0 W/m² | - |
* Rain latest hour (hover to see other rain measurements)
** Current wind speed in m/s (hover to see current wind gust speed)